Other Public Products
Issued by NWS Charleston, SC

Home | Current Version | Previous Version | Text Only | Print | Product List | Glossary On
Versions: 1 2 3 4 5 6 7 8 9 10 11 12 13 14 15 16 17 18 19 20 21 22 23 24 25 26 27 28 29 30 31 32 33 34 35 36 37 38 39 40 41 42 43 44 45 46 47 48 49 50
000
FPUS82 KCHS 231212
OPUCHS

TEST...KCHS/KSAV Gateway Observations...TEST
National Weather Service Charleston SC
700 AM EST MON JAN 23 2017

NOTE: "fair" indicates few or no clouds below 12,000 feet with no
significant weather and/or obstructions to visibility.

SCZ050-WAZ558-NCZ071-TXZ119-213-PAZ071-DCZ001-FLZ074-172-MI076-
NYZ176-178-MAZ016-IL014-TNZ027-NJZ106-GAZ044-MD014-231300-
...Gateway Observations for Charleston International...

CITY           SKY/WX    TMP DP  RH WIND       PRES   REMARKS
Chas Airport   PTCLDY    52  48  86 S6        29.30R
6HR MIN TEMP:  50; 6HR MAX TEMP:  58;

Seattle        CLOUDY    38  33  82 CALM      29.67R
6HR MIN TEMP:  36; 6HR MAX TEMP:  43;

Charlotte      PTCLDY    48  45  89 S8        29.22R
6HR MIN TEMP:  48; 6HR MAX TEMP:  56; 6HR PCP:  0.72;

Dallas DFW     CLEAR     42  34  73 NW5       29.96R
6HR MIN TEMP:  41; 6HR MAX TEMP:  50;

Dallas Love    CLEAR     44  33  65 W5        29.97R
6HR MIN TEMP:  43; 6HR MAX TEMP:  52;

Philladelphia  DRIZZLE   43  39  86 NE22G32   29.70R
6HR MIN TEMP:  43; 6HR MAX TEMP:  46; 6HR PCP:  0.01;

Wash National  LGT RAIN  47  45  93 NE22G33   29.50F FOG
6HR MIN TEMP:  47; 6HR MAX TEMP:  50; 6HR PCP:  0.04;

Baltimore      DRIZZLE   44  44 100 NE28G40   29.55F FOG
6HR MIN TEMP:  44; 6HR MAX TEMP:  47; 6HR PCP: TRACE;

Miami          PTCLDY    72  63  73 W9        29.60R
6HR MIN TEMP:  70; 6HR MAX TEMP:  80; 6HR PCP:  1.20;

Detroit        LGT RAIN  42  41  96 NE8       29.64R FOG
6HR MIN TEMP:  42; 6HR MAX TEMP:  44; 6HR PCP:  0.03;

Newark         CLOUDY    42  35  76 NE16G30   29.82R
6HR MIN TEMP:  42; 6HR MAX TEMP:  45; 6HR PCP: TRACE;

Laguardia      CLOUDY    43  34  70 E29G37    29.83F
6HR MIN TEMP:  42; 6HR MAX TEMP:  45;

J F K          CLOUDY    43  36  76 NE22G35   29.83R
6HR MIN TEMP:  43; 6HR MAX TEMP:  46;

Boston Logan   FLURRIES  36  33  89 E22G30    30.02F WCI  25
6HR MIN TEMP:  35; 6HR MAX TEMP:  40; 6HR PCP:  0.02;

Ft. Lauderdale MOCLDY    69  62  78 W12G26    29.58R
6HR MIN TEMP:  68; 6HR MAX TEMP:  79; 6HR PCP:  0.58;

Chicago O`Hare CLOUDY    38  35  89 N13       29.73S WCI  30
6HR MIN TEMP:  37; 6HR MAX TEMP:  39;

Chicago Midway CLOUDY    39  33  79 N13G23    29.73R WCI  31
6HR MIN TEMP:  39; 6HR MAX TEMP:  40;

Houston Bush   CLEAR     49  38  65 W7        29.95S
6HR MIN TEMP:  48; 6HR MAX TEMP:  59;

Houston Hobby  CLEAR     52  37  56 W7        29.95S
6HR MIN TEMP:  51; 6HR MAX TEMP:  59;

Nashville      CLOUDY    51  45  79 NW24G35   29.46R
6HR MIN TEMP:  51; 6HR MAX TEMP:  56; 6HR PCP: TRACE;

Atlanta        CLOUDY    49  47  93 NW9       29.26R
6HR MIN TEMP:  48; 6HR MAX TEMP:  50; 6HR PCP:  0.30;


$$

GAZ044-118-TXZ119-213-NCZ071-DCZ001-MDZ014-506-PAZ021-071-NJZ106-
NYZ176-178-MAZ106-OHZ011-021-055-MIZ076-KYZ091-ILZ014-INZ047-
MNZ060-231300-
...Gateway Observations for Savannah International...

CITY           SKY/WX    TMP DP  RH WIND       PRES   REMARKS
Savannah Arpt  MOCLDY    52  48  86 S9        29.31S
6HR MIN TEMP:  52; 6HR MAX TEMP:  57;

Atlanta        CLOUDY    49  47  93 NW9       29.26R
6HR MIN TEMP:  48; 6HR MAX TEMP:  50; 6HR PCP:  0.30;

Charlotte      PTCLDY    48  45  89 S8        29.22R
6HR MIN TEMP:  48; 6HR MAX TEMP:  56; 6HR PCP:  0.72;

Dallas DFW     CLEAR     42  34  73 NW5       29.96R
6HR MIN TEMP:  41; 6HR MAX TEMP:  50;

Houston Bush   CLEAR     49  38  65 W7        29.95S
6HR MIN TEMP:  48; 6HR MAX TEMP:  59;

Wash National  LGT RAIN  47  45  93 NE22G33   29.50F FOG
6HR MIN TEMP:  47; 6HR MAX TEMP:  50; 6HR PCP:  0.04;

Wash Dulles    CLOUDY    45  42  89 E24G35    29.49S FOG
6HR MIN TEMP:  45; 6HR MAX TEMP:  50; 6HR PCP:  0.01;

Baltimore      DRIZZLE   44  44 100 NE28G40   29.55F FOG
6HR MIN TEMP:  44; 6HR MAX TEMP:  47; 6HR PCP: TRACE;

Philadelphia   DRIZZLE   43  39  86 NE22G32   29.70R
6HR MIN TEMP:  43; 6HR MAX TEMP:  46; 6HR PCP:  0.01;

Newark         CLOUDY    42  35  76 NE16G30   29.82R
6HR MIN TEMP:  42; 6HR MAX TEMP:  45; 6HR PCP: TRACE;

Laguardia      CLOUDY    43  34  70 E29G37    29.83F
6HR MIN TEMP:  42; 6HR MAX TEMP:  45;

J F K          CLOUDY    43  36  76 NE22G35   29.83R
6HR MIN TEMP:  43; 6HR MAX TEMP:  46;

Boston         FLURRIES  36  33  89 E22G30    30.02F WCI  25
6HR MIN TEMP:  35; 6HR MAX TEMP:  40; 6HR PCP:  0.02;

Pittsburg      DRIZZLE   49  44  83 E14       29.51R
6HR MIN TEMP:  49; 6HR MAX TEMP:  50; 6HR PCP:  0.01;

Akron          LGT RAIN  49  45  86 E15       29.52R FOG
6HR MIN TEMP:  49; 6HR MAX TEMP:  53; 6HR PCP:  0.35;

Cleveland      LGT RAIN  40  37  89 NE13      29.59R VSB 1/2 WCI  32
6HR MIN TEMP:  40; 6HR MAX TEMP:  41; 6HR PCP:  0.22;

Cincinnati     LGT RAIN  48  46  93 N16G23    29.45R FOG
6HR MIN TEMP:  48; 6HR MAX TEMP:  55; 6HR PCP:  0.03;

Columbus         N/A     51  48  90 NE10      29.44R
Detroit        LGT RAIN  42  41  96 NE8       29.64R FOG
6HR MIN TEMP:  42; 6HR MAX TEMP:  44; 6HR PCP:  0.03;

Chicago O`Hare CLOUDY    38  35  89 N13       29.73S WCI  30
6HR MIN TEMP:  37; 6HR MAX TEMP:  39;

Minneapolis    DRIZZLE   33  31  92 W6        29.81S FOG     WCI  28
6HR MIN TEMP:  33; 6HR MAX TEMP:  34; 6HR PCP: TRACE;

Indianapolis   CLOUDY    43  42  97 N16       29.59R FOG
6HR MIN TEMP:  43; 6HR MAX TEMP:  50;


$$




USA.gov is the U.S. government's official web portal to all federal, state and local government web resources and services.